Weather in Novogusel'skiy

Russia / Saratov Oblast     51°36′06″N   46°09′34″E
temp.,
°C
wind,
m/s
gust,
m/s
humid.,
%
clouds,
%
prec.,
mm/h
press.,
hPa
HPBL,
m
19 january, wed
wed1901:00−1s71593100 0.6 1012616
04:000s61194100 0.6 1013569
07:000s61196100 0.3 1012488
10:000ssw5897100 0.6 1014429
13:00−1sw4790100 0.1 1015583
16:00−1sw4579100 0.1 1017193
19:00−3wsw1188100 0.0 101713
22:00−6nw1191100 0.0 101710
20 january, thu
thu2001:00−10wnw119794 0.1 101810
04:00−14nw1110085 0.1 10199
07:00−16nnw2210097 0.0 101910
10:00−14wnw1110097 0.1 102023
13:00−10wsw229584 0.0 102096
16:00−11sw11955 0.0 101910
19:00−16ssw119942 0.0 10209
22:00−19ssw1110073 0.0 10209
21 january, fri
fri2101:00−20ssw1110088 0.0 10209
04:00−22ne00100100 0.0 10219
07:00−22e11100100 0.0 102011
10:00−21se11100100 0.1 102130
13:00−13s259592 0.1 1019184
16:00−11se3795100 0.1 1018181
19:00−11se41094100 0.0 1017225
22:00−8se61491100 0.0 1015385
22 january, sat
sat2201:00−6sse61494100 0.4 1014446
04:00−5sse61396100 2.4 1014459
07:00−4s4896100 1.1 1014290
10:00−3s2496100 1.3 1016140
13:00−2ssw2391100 0.0 1017286
16:00−2sw1296100 0.3 1018181
19:00−3ene2398100 1.2 1018122
22:00−2s61397100 2.8 1019626
23 january, sun
sun2301:00−2sse61396100 1.6 1020581
04:00−3sse61196100 3.1 1022443
07:00−4sse4995100 1.5 1023351
10:00−5se3795100 1.6 1024244
13:00−4e3596100 0.6 1025314
16:00−4e5896100 2.7 1026356
19:00−5ene5994100 1.9 1027354
22:00−8ene4891100 1.9 1028213